{"data":{"norad_id":53049,"epoch":"2026-09-19T18:14:12.837984Z","epoch_age_seconds":133361,"freshness":"FRESH","line1":"1 53049U 22077G   26262.75987081  .00000952  00000+0  31821-4 0  9996","line2":"2 53049  97.2850  77.5518 0001600  88.7312 271.4114 15.33435743230174","mean_motion":15.33435743,"eccentricity":0.00016,"inclination_deg":97.285,"raan_deg":77.5518,"arg_perigee_deg":88.7312,"mean_anomaly_deg":271.4114,"bstar":3.1821e-5,"rev_number":23017,"period_min":93.906771547062,"perigee_km":464.47572370112,"apogee_km":466.66571017054,"semimajor_km":6843.7077169358,"source":"CELESTRAK","updated_at":"2026-09-20T09:00:40.150798Z"}}